Regional Weather Roundup
Issued by NWS Little Rock, AR

Home | Current Version | Previous Version | Text Only | Print | Product List | Glossary Off
Versions: 1 2 3 4 5 6 7 8 9 10 11 12 13 14 15 16 17 18 19 20 21 22 23 24 25 26 27 28 29 30 31 32 33 34 35 36 37 38 39 40 41 42 43 44 45 46 47 48 49 50

538
ASUS44 KLZK 231905
RWRLZK

WEATHER ROUNDUP FOR ARKANSAS
NATIONAL WEATHER SERVICE LITTLE ROCK AR
200 PM CDT SAT JUL 23 2016

NOTE: "FAIR" INDICATES FEW OR NO CLOUDS BELOW 12,000 FEET WITH NO
SIGNIFICANT WEATHER AND/OR OBSTRUCTIONS TO VISIBILITY.

ARZ001-003-010-029-232000-
NORTHWEST ARKANSAS

CITY           SKY/WX    TMP DP  RH WIND       PRES   REMARKS
FAYETTEVILLE   MOSUNNY   94  75  54 SW5       29.99F HX 105
FORT SMITH     SUNNY     99  71  40 MISG      29.93F HX 107
HARRISON       MOSUNNY   95  71  45 VRB5      30.00F HX 102
BENTONVILLE    MOSUNNY   93  70  46 SW8       30.01F HX  99
ROGERS         MOSUNNY   95  73  48 SW8       30.01F HX 104
SILOAM SPGS    MOSUNNY   95  70  43 W8        30.01F HX 101
HIGHFILL       MOSUNNY   94  74  52 SW8       29.99F HX 104
SPRINGDALE     MOSUNNY   93  72  49 SW6       30.01F HX 100
$$

ARZ004-005-016-232000-
NORTH CENTRAL ARKANSAS

CITY           SKY/WX    TMP DP  RH WIND       PRES   REMARKS
BATESVILLE     SUNNY     99  75  47 NE6       29.93F HX 111
FLIPPIN        SUNNY     97  73  46 NE5       29.95S HX 107
MTN HOME       SUNNY     94  73  50 N3        29.98S HX 103
$$

ARZ040-041-232000-
WEST CENTRAL ARKANSAS

CITY           SKY/WX    TMP DP  RH WIND       PRES   REMARKS
MENA           PTSUNNY   99  72  41 N7        29.97F HX 107
MOUNT IDA      MOSUNNY   98  73  44 VRB3      29.94F HX 108
$$

ARZ009-017-025-026-028-232000-
NORTHEAST ARKANSAS

CITY           SKY/WX    TMP DP  RH WIND       PRES   REMARKS
CORNING          N/A     93  75  55 NE6       29.96S HX 104
JONESBORO      CLOUDY    91  80  70 SE8       29.95S HX 109
NEWPORT        MOSUNNY   97  79  56 VRB5      29.95F HX 115
WALNUT RIDGE   SUNNY     93  73  52 E5        29.93F HX 102
BLYTHEVILLE    MOSUNNY   89  78  70 S6        29.97S HX 103
$$

ARZ022-023-033-042-044-232000-
CENTRAL ARKANSAS

CITY           SKY/WX    TMP DP  RH WIND       PRES   REMARKS
LITTLE ROCK    MOSUNNY   97  74  47 SE7       29.93F HX 108
N LITTLE ROCK    N/A     96  77  53 SW5       29.90F HX 110
JACKSONVILLE   MOSUNNY   99  78  50 S7        29.92F HX 116
SEARCY         SUNNY     99  76  47 VRB5      29.94F HX 113
HOT SPRINGS    MOSUNNY  100  70  37 CALM      29.94F HX 107
RUSSELLVILLE   MOSUNNY   95  77  55 CALM      29.93F HX 109
$$

ARZ036-232000-
EAST ARKANSAS

CITY           SKY/WX    TMP DP  RH WIND       PRES   REMARKS
WEST MEMPHIS   PTSUNNY   86  73  65 S13       29.96F HX  93
$$

ARZ050-053-066-070-073-232000-
SOUTHWEST ARKANSAS

CITY           SKY/WX    TMP DP  RH WIND       PRES   REMARKS
CAMDEN         CLOUDY   100  72  39 CALM      29.93F HX 109
TEXARKANA      CLOUDY   100  72  40 SE7       29.94F HX 109
EL DORADO      MOSUNNY   96  75  50 S9        29.95F HX 108
DE QUEEN       MOSUNNY  100  72  40 SW5       29.91F THUNDER HX 109
$$

ARZ056-057-069-232000-
SOUTHEAST ARKANSAS

CITY           SKY/WX    TMP DP  RH WIND       PRES   REMARKS
PINE BLUFF     SUNNY     96  76  52 SW6       29.94F HX 109
STUTTGART      MOSUNNY   99  75  47 W6        29.94F HX 111
MONTICELLO     MOSUNNY   98  75  47 VRB5      29.95F HX 110

$$






USA.gov is the U.S. government's official web portal to all federal, state and local government web resources and services.